Regional Weather Roundup
Issued by NWS

Home | Current Version | Previous Version | Graphics & Text | Print | Product List | Glossary On
Versions: 1 2 3 4 5 6 7 8 9 10 11 12 13 14 15 16 17 18 19 20 21 22 23 24 25 26 27 28 29 30 31 32 33 34 35 36 37 38 39 40 41 42 43 44 45 46 47 48 49 50
000
ASUS45 KTFX 300610
RWRMT
MONTANA REGIONAL WEATHER ROUNDUP
NATIONAL WEATHER SERVICE GREAT FALLS MT
1200 AM MDT SAT APR 30 2016

NOTE: "FAIR" INDICATES FEW OR NO CLOUDS BELOW 12000 FEET WITH NO
SIGNIFICANT WEATHER AND/OR OBSTRUCTIONS TO VISIBILITY.

MTZ001>007-043-300700-
WEST OF THE DIVIDE

CITY           SKY/WX    TMP DP  RH WIND       PRES   REMARKS
KALISPELL      MOCLDY    38  35  89 W3        30.02R
MISSOULA       LGT RAIN  45  39  79 NE5       30.04R
BUTTE          CLOUDY    36  34  92 W7        29.99R WCI  30
MULLAN PASS    LGT SNOW  32  31  96 CALM      30.02S FOG
ANACONDA         N/A     36  34  93 S3        30.01R
DEER LODGE       N/A     39  36  87 NW7       30.01R
EUREKA           N/A     45  37  76 CALM      30.04S
HAMILTON         N/A     45  36  70 NW6       30.02R
LIBBY            N/A     43  37  81 SE3       30.05R
PLAINS           N/A     46  38  74 CALM      30.04R
$$

MTZ008-052>055-300700-
SOUTHWEST MONTANA

CITY           SKY/WX    TMP DP  RH WIND       PRES   REMARKS
BOZEMAN        CLOUDY    44  30  57 N5        29.97R
DILLON         CLOUDY    42  36  79 W7        29.94R
ENNIS          CLOUDY    39  34  81 N5        30.00R
THREE FORKS      N/A     42  29  60 CALM      29.98R
TWIN BRIDGES     N/A     42  30  62 N13       29.94R
$$

MTZ009-010-012-014-046-048-049-054-300700-
EAST SLOPES AND CENTRAL MONTANA

CITY           SKY/WX    TMP DP  RH WIND       PRES   REMARKS
CUT BANK       CLEAR     37  34  89 NE3       30.05R
GREAT FALLS    CLOUDY    40  34  79 E8        30.01R
MALMSTROM AFB  CLOUDY    42  35  76 E3        30.02R
HELENA         CLOUDY    45  32  60 VRB7      29.98R
CHOTEAU          N/A     34  32  93 N10       30.04R WCI  26
CONRAD           N/A     36  36 100 CALM      30.05S
$$

MTZ011-013-016-021-045-047-050-051-300700-
NORTH CENTRAL MONTANA

CITY           SKY/WX    TMP DP  RH WIND       PRES   REMARKS
HAVRE          CLOUDY    46  39  76 E13       30.07R
LEWISTOWN      CLOUDY    42  33  70 E12       30.05R
N BAR RANCH    CLOUDY    39  37  93 SE7       30.08S
CHINOOK          N/A     46  39  76 E3        30.09R
$$

MTZ017>020-022>027-061-062-300700-
NORTHEAST MONTANA

CITY           SKY/WX    TMP DP  RH WIND       PRES   REMARKS
GLASGOW        CLOUDY    46  35  65 E9        30.12R
JORDAN           N/A     44  38  79 E5        30.09S
SIDNEY         CLEAR     43  30  61 NE6       30.13S
WOLF POINT     CLOUDY    46  35  65 E8        30.13S
PLENTYWOOD       N/A     46  25  42 E10       30.16R
POPLAR           N/A     43  30  61 E7        30.14R
SCOBEY           N/A     40  22  49 SE7       30.12R
$$

MTZ028>42-056>058-300700-
SOUTHCENTRAL AND SOUTHEAST MONTANA

CITY           SKY/WX    TMP DP  RH WIND       PRES   REMARKS
BAKER          CLOUDY    44  35  70 E5        30.08S
BILLINGS       CLOUDY    44  37  76 NE6       30.02F
LIVINGSTON     CLOUDY    42  31  64 E16       30.00R
MILES CITY     CLOUDY    47  36  65 NE8       30.08R
EKALAKA          N/A     36  30  79 CALM      30.05S
FORSYTH          N/A     45  39  81 E7        30.07S
LAUREL           N/A     42  31  65 CALM      30.00S
ROUNDUP          N/A     43  36  76 CALM      29.96S
$$

REGIONAL REPORTS...DAKOTAS

CITY           SKY/WX    TMP DP  RH WIND       PRES   REMARKS
WILLISTON      CLEAR     45  27  49 E8        30.15S
MINOT          CLEAR     45  29  53 NE6       30.18R
DICKINSON      PTCLDY    39  30  70 E8        30.09S
BEACH          CLOUDY    36  32  87 E8        30.13S WCI  29
CROSBY           N/A     36  25  64 E12       30.21R WCI  27
WATFORD CITY     N/A     41  28  60 E9        30.15S
BISMARCK       CLEAR     42  34  73 NE9       30.13S
GRAND FORKS    CLEAR     47  32  56 NE10      30.17F
FARGO          CLEAR     50  32  50 E13       30.12S
BUFFALO SD       N/A     40  33  76 NE5       30.01S
RAPID CITY     CLOUDY    40  37  89 N6        30.04F
$$

REGIONAL REPORTS...WYOMING/IDAHO/WASHINGTON

CITY           SKY/WX    TMP DP  RH WIND       PRES   REMARKS
GILLETTE       CLOUDY    39  36  89 E5        30.02R
SHERIDAN       CLOUDY    41  36  82 E5        30.03R
BUFFALO WY       N/A    N/A N/A N/A MISG      30.03R
CODY           CLOUDY    39  34  81 CALM      29.99S
YELLOWSTONE LA   N/A     32  23  69 CALM      29.98S
IDAHO FALLS    CLOUDY    41  36  82 E5        29.91R
SALMON         CLOUDY    39  32  75 CALM      29.97R
BOISE          CLEAR     48  36  63 NW16      29.94S
SPOKANE        LGT RAIN  49  45  86 S5        30.03S
$$

REGIONAL REPORTS...ALBERTA

CITY           SKY/WX    TMP DP  RH WIND       PRES   REMARKS
EDMONTON       CLOUDY    54  34  47 S8        30.07R
CALGARY        CLOUDY    45  32  61 SE8       30.06R
LETHBRIDGE     CLOUDY    43  37  81 S8        30.06R
MEDICINE HAT   CLOUDY    48  39  71 VRB3      30.08R
WATERTON GATE    N/A     36  32  87 SW3         N/A
MILK RIVER       N/A     39  34  81 E2          N/A
ONEFOUR          N/A     43  37  81 E8          N/A
$$

REGIONAL REPORTS...SASKATCHEWAN

CITY           SKY/WX    TMP DP  RH WIND       PRES   REMARKS
SWIFT CURRENT  CLEAR     36  25  64 SE8       30.13R WCI  29
REGINA         CLEAR     46  19  34 E18G24    30.20R
SASKATOON      CLEAR     48  25  40 SE14      30.19S
CYPRESS HILLS    N/A     41  32  70 SE6         N/A
VAL MARIE        N/A     46  36  66 SE9         N/A
ROCKGLEN         N/A     43  27  52 E6          N/A
$$



USA.gov is the U.S. government's official web portal to all federal, state and local government web resources and services.